Location: Olda
(45.8833°N, 9.5500°E)
Time: 14:21:01
(UTC+00:00)

SPOT 3 Rocket - Pass Details

Date: 03 March 2021
Orbit: 778 x 795 km, 98.7° (Epoch: 15 April)

Event Time Altitude Azimuth Distance (km) Brightness Sun altitude
Exits shadow 20:18:41 47° 313° (NW) 1,041 4.4 -32.5°
Drops below altitude 10° 20:22:37 10° 340° (NNW) 2,372 6.6 -33.1°
Sets 20:24:59 0° 343° (NNW) 3,308 7.4 -33.5°
